Temperature
4 5 4 4 4 3 3 3 3 3 3 3 2 2 2 1 1 -0 -1 -1 -2 -2 -3 -3 -3 -4 -4 -4 -4 -4 -4 -4 -5 -5 -5 -5 -5 -5 -5 -6 -6 -6 -6 -6
3 4 3 3 3 3 3 3 3 2 2 2 2 1 1 0 -0 -1 -1 -2 -3 -3 -3 -4 -4 -4 -4 -4 -5 -5 -5 -5 -5 -6 -6 -6 -6 -6 -6 -6 -6 -7 -7 -7
2 3 2 2 2 2 2 1 2 2 1 0 -0 -0 -1 -1 -1 -1 -2 -3 -3 -4 -4 -4 -5 -5 -5 -5 -5 -5 -5 -6 -6 -6 -6 -6 -6 -7 -7 -7 -7 -7 -7 -7
2 2 1 2 1 2 1 1 1 0 -0 -0 -1 -1 -1 -1 -2 -2 -3 -3 -4 -4 -4 -5 -5 -5 -5 -6 -6 -6 -6 -6 -6 -7 -7 -7 -7 -7 -7 -8 -8 -8 -8 -8
1 1 2 2 1 0 0 -0 -0 -1 -1 -1 -1 -2 -2 -2 -3 -3 -3 -4 -4 -5 -5 -5 -5 -6 -6 -6 -6 -7 -7 -7 -7 -7 -7 -7 -7 -8 -8 -8 -8 -8 -8 -8
1 1 1 2 -0 0 0 -1 -1 -1 -2 -2 -2 -3 -4 -3 -3 -4 -4 -5 -5 -5 -5 -6 -6 -6 -6 -6 -7 -7 -7 -7 -8 -8 -8 -8 -8 -8 -8 -9 -9 -9 -9 -9
-0 0 0 -1 -1 -0 -0 -0 -1 -1 -2 -2 -3 -4 -4 -4 -5 -5 -5 -5 -5 -6 -6 -6 -6 -6 -7 -7 -7 -8 -8 -8 -8 -8 -8 -9 -9 -9 -9 -9 -9 -9 -9 -9
-1 -0 -0 -2 -2 -2 -2 -2 -2 -2 -2 -3 -4 -4 -5 -5 -5 -6 -6 -6 -6 -6 -6 -7 -7 -7 -7 -8 -8 -8 -8 -8 -8 -9 -9 -9 -9 -9 -10 -10 -10 -10 -10 -10
-1 -1 -2 -2 -2 -2 -2 -2 -3 -3 -3 -4 -5 -5 -6 -6 -6 -6 -6 -7 -7 -7 -7 -7 -8 -8 -8 -8 -9 -9 -9 -9 -9 -9 -9 -10 -10 -10 -10 -11 -11 -11 -11 -11
-2 -3 -2 -3 -3 -3 -3 -3 -3 -4 -4 -4 -5 -6 -6 -6 -7 -7 -7 -7 -7 -7 -8 -8 -8 -8 -9 -9 -9 -9 -9 -9 -10 -10 -10 -10 -10 -11 -11 -11 -11 -12 -12 -12
-4 -4 -4 -3 -3 -3 -4 -4 -4 -4 -4 -5 -5 -6 -6 -7 -7 -7 -8 -8 -8 -8 -8 -9 -9 -9 -9 -10 -10 -10 -10 -10 -10 -11 -11 -11 -11 -11 -12 -12 -12 -12 -12 -12
-4 -4 -4 -4 -4 -4 -5 -5 -5 -5 -6 -6 -6 -6 -7 -7 -8 -8 -8 -8 -9 -9 -9 -9 -9 -10 -10 -10 -10 -10 -10 -11 -11 -11 -11 -12 -12 -12 -12 -12 -12 -12 -12 -12
-4 -4 -5 -5 -5 -5 -5 -6 -6 -6 -6 -7 -7 -7 -7 -8 -8 -8 -9 -9 -9 -9 -10 -10 -10 -10 -10 -11 -11 -11 -11 -11 -11 -12 -12 -12 -13 -13 -13 -12 -12 -13 -13 -13
-5 -5 -6 -6 -6 -6 -6 -6 -6 -7 -7 -7 -8 -8 -8 -8 -9 -9 -9 -9 -9 -10 -10 -10 -10 -11 -11 -11 -11 -11 -11 -12 -12 -12 -13 -13 -13 -13 -13 -13 -13 -13 -13 -13
-6 -6 -6 -7 -7 -7 -7 -7 -7 -8 -8 -8 -8 -8 -9 -9 -9 -9 -9 -10 -10 -10 -10 -11 -11 -11 -11 -11 -12 -12 -12 -12 -12 -13 -13 -13 -13 -14 -14 -14 -14 -14 -14 -13
-7 -7 -7 -7 -8 -8 -8 -8 -8 -8 -9 -9 -9 -9 -9 -9 -9 -10 -10 -10 -10 -10 -11 -11 -11 -11 -12 -12 -12 -12 -12 -13 -13 -13 -13 -14 -14 -14 -14 -14 -14 -14 -14 -14
-8 -9 -8 -9 -8 -8 -8 -8 -9 -9 -9 -9 -9 -9 -9 -10 -10 -10 -10 -11 -11 -11 -11 -11 -12 -12 -12 -12 -13 -13 -13 -13 -13 -14 -14 -14 -14 -14 -15 -15 -15 -15 -15 -15
-8 -8 -8 -8 -8 -9 -9 -9 -9 -9 -9 -9 -10 -10 -10 -10 -10 -10 -11 -11 -11 -11 -12 -12 -12 -12 -12 -13 -13 -13 -13 -14 -14 -14 -14 -14 -15 -15 -15 -15 -15 -15 -15 -15
-8 -8 -8 -9 -9 -9 -9 -9 -9 -10 -10 -10 -10 -10 -10 -11 -11 -11 -11 -12 -12 -12 -12 -12 -12 -13 -13 -13 -13 -14 -14 -14 -14 -14 -14 -15 -15 -15 -15 -15 -15 -15 -15 -15
-9 -9 -9 -9 -9 -10 -10 -10 -10 -10 -10 -10 -10 -11 -11 -11 -11 -12 -12 -12 -12 -12 -12 -13 -13 -13 -13 -13 -14 -14 -14 -14 -14 -15 -15 -15 -15 -15 -15 -15 -16 -16 -15 -15
-9 -9 -9 -10 -10 -10 -10 -11 -11 -11 -11 -11 -11 -11 -11 -12 -12 -12 -12 -12 -13 -13 -13 -13 -13 -13 -14 -14 -14 -14 -14 -14 -15 -15 -15 -15 -15 -15 -15 -16 -16 -16 -16 -15
-10 -10 -10 -10 -11 -11 -11 -11 -11 -11 -12 -12 -12 -12 -12 -12 -13 -13 -13 -13 -13 -13 -14 -14 -14 -14 -14 -14 -14 -14 -14 -15 -15 -15 -15 -15 -15 -16 -16 -16 -16 -16 -16 -15
-11 -11 -11 -11 -11 -12 -12 -12 -12 -12 -12 -12 -13 -13 -13 -13 -13 -13 -13 -13 -14 -14 -14 -14 -14 -14 -15 -15 -14 -14 -15 -15 -15 -15 -15 -15 -16 -16 -16 -16 -16 -16 -16 -16
-11 -11 -12 -12 -12 -12 -12 -12 -13 -13 -13 -13 -13 -13 -14 -14 -14 -14 -14 -14 -14 -14 -14 -14 -14 -15 -15 -15 -15 -15 -15 -15 -15 -15 -16 -16 -16 -16 -16 -16 -16 -16 -16 -16
-12 -12 -12 -12 -12 -13 -13 -13 -13 -13 -13 -13 -14 -14 -14 -14 -14 -14 -14 -14 -14 -14 -14 -14 -15 -15 -15 -15 -15 -15 -15 -15 -16 -16 -16 -16 -16 -16 -16 -16 -16 -16 -16 -16
-12 -13 -13 -13 -13 -13 -13 -13 -13 -13 -14 -14 -14 -14 -14 -14 -14 -14 -14 -15 -15 -15 -15 -15 -15 -15 -15 -15 -15 -15 -16 -16 -16 -16 -16 -16 -16 -16 -16 -16 -16 -16 -16 -16
-13 -13 -13 -13 -13 -13 -14 -14 -14 -14 -14 -14 -14 -14 -14 -14 -15 -15 -15 -15 -15 -15 -15 -15 -15 -15 -15 -16 -16 -16 -16 -16 -16 -16 -16 -16 -16 -16 -16 -16 -16 -16 -16 -16
Wind_Speed
5 3 2 4 6 8 10 9 8 6 6 5 2 1 1 2 3 3 3 2 2 2 1 1 2 2 2 2 1 1 1 1 2 2 2 3 3 4 4 5 6 6 6 6
4 4 3 6 7 9 10 9 10 9 8 3 0 2 2 2 2 2 2 2 2 2 1 1 1 1 1 1 1 1 1 2 2 2 3 3 4 4 5 5 5 5 6 6
3 1 3 8 8 9 6 6 6 9 7 1 1 1 0 1 1 1 2 2 2 1 1 1 0 1 1 0 0 0 1 2 2 3 3 4 4 4 5 5 5 6 6 6
2 1 7 6 0 3 6 4 5 3 2 2 1 1 2 2 2 2 2 2 2 2 1 1 2 1 1 1 1 1 1 2 3 3 4 4 4 5 5 5 5 6 7 7
3 4 7 4 2 2 4 4 3 5 3 1 2 2 2 3 4 3 2 2 2 2 2 2 2 2 1 1 1 1 2 3 3 3 4 5 6 6 5 5 6 6 7 7
4 4 6 4 1 0 3 3 1 3 3 3 2 1 1 3 4 4 3 3 3 2 2 2 2 2 1 1 1 2 3 4 4 4 5 6 6 6 5 6 7 7 8 7
6 6 6 1 1 2 3 3 1 3 3 3 2 2 2 3 4 3 3 3 3 3 2 2 2 2 1 2 2 3 3 4 4 5 5 6 6 5 5 6 6 7 8 8
4 5 6 2 3 3 3 2 2 3 3 3 4 4 3 3 3 3 3 3 3 2 2 2 2 2 2 2 3 3 4 4 5 5 6 6 5 6 6 6 6 7 7 8
5 5 0 2 2 1 2 2 2 3 3 4 3 3 3 3 2 2 2 2 2 2 2 2 2 2 2 3 4 4 4 5 5 6 5 6 6 6 6 5 5 6 6 7
2 3 1 1 1 2 2 2 2 3 2 3 3 3 2 2 2 2 2 2 2 2 2 2 3 3 2 3 4 4 5 5 6 5 6 5 5 5 5 5 5 6 7 7
3 2 1 1 0 1 2 3 3 3 3 3 3 3 2 2 1 1 2 2 2 2 1 2 3 3 4 4 4 4 5 5 6 6 5 5 5 5 6 5 7 8 6 7
4 2 2 1 2 3 3 3 3 3 3 3 3 2 2 1 1 1 1 2 2 2 2 2 3 4 4 4 4 4 5 5 5 5 5 5 5 6 10 10 13 14 13 12
1 1 0 1 2 2 2 2 3 3 3 2 2 2 2 1 1 1 1 1 1 2 2 3 3 4 4 4 4 4 5 6 5 5 5 6 6 6 8 9 12 13 15 15
2 2 1 1 1 3 3 4 4 4 3 3 2 2 2 1 1 1 1 1 2 2 3 3 4 4 5 4 5 5 6 7 6 5 5 6 6 7 7 7 8 7 10 15
3 2 1 2 3 3 3 3 4 3 3 2 2 2 1 1 1 2 2 2 2 2 3 3 4 5 5 4 5 6 5 4 5 5 5 6 7 7 6 7 7 8 7 9
2 3 3 3 2 2 2 2 2 2 1 1 1 1 1 0 1 2 2 2 2 3 4 4 5 5 5 5 5 5 5 9 8 6 6 6 6 6 6 7 7 7 7 8
2 2 2 2 2 1 1 1 1 1 1 1 1 1 1 1 2 2 2 2 3 4 4 4 5 5 5 5 5 5 5 7 10 8 6 6 6 6 6 7 7 7 7 10
1 1 1 2 2 1 1 2 2 1 1 0 1 1 1 1 2 3 3 3 4 4 4 4 5 5 5 5 4 4 5 5 5 6 6 6 7 6 6 6 7 8 7 9
4 4 3 3 2 2 1 1 1 1 1 1 1 1 2 2 2 3 3 3 4 5 5 5 8 6 6 6 7 4 5 6 6 6 6 9 9 6 6 6 7 7 8 8
5 5 4 4 3 3 2 1 1 1 2 1 1 2 2 3 3 3 3 4 4 4 5 6 6 5 6 6 8 4 5 6 6 6 6 6 6 6 6 7 7 7 7 7
4 4 4 3 3 2 2 1 1 2 2 1 1 2 3 3 3 3 3 5 4 4 5 8 5 5 5 6 7 4 4 6 6 6 6 6 6 6 6 7 7 7 7 7
3 3 3 3 3 3 3 2 2 2 2 2 2 2 3 4 4 4 4 4 5 8 6 4 5 8 9 8 4 4 5 6 6 5 5 5 6 6 7 7 7 7 7 7
2 2 2 2 2 2 3 3 2 2 2 3 3 3 3 4 4 4 5 4 4 8 6 5 8 12 12 6 4 5 5 6 5 5 5 5 6 6 6 7 7 7 7 7
2 2 2 2 2 2 3 3 3 2 2 3 3 3 3 4 4 3 4 7 9 10 6 8 12 13 11 4 4 5 5 5 5 5 6 6 6 6 6 7 7 7 8 8
2 1 2 2 2 2 2 3 3 3 3 3 4 3 3 3 4 4 4 5 9 9 5 8 12 12 7 4 5 5 5 5 6 6 5 6 6 6 6 7 7 7 8 8
1 1 1 1 1 1 2 2 2 3 3 4 4 4 3 3 4 4 4 5 6 8 6 5 6 7 5 5 5 5 5 6 7 6 6 6 7 7 7 7 8 8 8 8
1 1 1 1 2 2 2 2 2 3 3 4 5 4 4 4 4 4 4 4 5 5 5 5 5 5 5 5 5 6 6 6 6 6 6 6 6 7 7 8 8 8 9 9
Wind_Direction
263 278 238 235 222 203 208 216 224 241 241 260 248 226 152 118 111 116 123 128 133 135 140 145 148 156 154 160 170 190 220 247 261 276 282 284 285 286 287 287 289 286 289 290
267 242 252 263 246 223 226 232 240 255 269 264 308 70 60 86 122 132 128 116 107 95 86 112 142 148 137 155 192 185 237 269 279 285 285 283 285 289 290 289 291 291 289 287
251 213 291 261 237 215 211 215 211 233 238 182 88 35 -0 29 114 130 112 91 85 88 78 81 138 145 148 150 35 29 287 290 289 288 290 291 296 297 291 290 287 286 286 284
252 308 245 245 281 180 193 229 208 203 191 141 150 67 43 56 88 92 90 90 76 74 55 37 49 67 84 59 19 307 295 295 294 296 299 301 296 290 288 287 285 282 284 281
219 243 265 252 218 176 190 257 220 204 207 174 116 48 25 48 67 78 78 78 80 81 74 56 46 55 71 36 354 327 308 302 304 304 301 299 296 293 294 294 292 288 286 285
218 232 244 243 135 43 132 267 283 156 175 173 145 202 230 74 67 63 67 71 72 74 74 66 42 53 54 2 347 323 313 313 313 308 301 296 293 293 294 294 291 294 293 289
226 236 259 237 177 121 165 232 102 114 133 139 149 163 125 75 66 66 70 67 64 67 60 39 37 55 32 354 324 311 316 317 313 305 298 293 290 292 293 293 292 290 291 291
202 221 248 142 131 175 190 92 100 96 107 113 113 109 99 86 71 61 63 61 60 65 51 26 25 39 13 335 319 319 317 312 307 303 300 302 294 292 291 288 290 289 291 293
199 213 147 133 132 97 82 85 77 87 95 121 127 123 107 90 77 62 59 48 49 69 54 26 18 28 354 324 326 325 318 311 305 306 302 302 298 296 296 290 289 292 293 296
245 243 207 156 89 63 69 94 84 93 101 114 127 124 111 102 85 65 52 40 40 51 40 11 2 359 336 326 329 325 317 311 308 306 303 301 298 296 294 291 290 292 293 296
252 267 337 353 35 66 75 81 82 82 95 109 119 119 116 107 92 75 47 34 30 30 11 347 347 341 337 334 330 320 313 309 309 306 301 300 297 290 292 279 284 293 289 290
236 218 196 220 74 83 92 85 87 93 79 82 109 119 106 96 84 81 56 33 20 6 351 334 332 327 327 328 326 316 312 312 310 308 306 304 301 301 299 298 301 301 301 299
237 8 99 147 75 74 90 88 82 86 95 82 75 92 97 88 56 57 38 16 348 329 321 317 318 317 318 321 320 311 304 306 307 310 310 307 305 304 305 306 303 303 304 306
66 70 51 53 63 67 83 86 83 77 73 82 81 81 89 75 33 16 335 311 310 315 313 311 311 311 314 316 313 307 303 305 308 302 303 302 300 299 300 303 307 306 306 306
10 21 139 96 78 70 77 91 91 83 78 71 76 82 84 72 347 318 315 319 322 316 312 311 306 305 311 314 311 306 305 303 302 301 300 300 299 298 299 301 302 305 308 309
38 78 96 101 96 86 81 86 97 89 76 72 62 50 48 48 315 311 319 327 319 303 301 299 297 302 310 311 309 304 300 304 308 302 300 303 302 301 302 302 302 302 303 306
104 112 116 123 119 87 68 76 112 116 83 59 20 12 15 352 335 329 325 319 299 290 289 289 297 305 306 304 302 302 301 303 308 307 302 300 299 299 299 300 301 301 299 303
78 90 107 136 140 112 66 57 59 58 53 351 357 2 339 320 305 304 307 311 312 303 293 298 302 306 305 304 303 298 300 300 301 301 303 302 301 300 301 301 301 302 302 304
64 68 66 65 69 86 72 51 33 21 360 355 352 323 301 290 287 294 302 307 301 299 308 310 313 315 303 302 310 297 301 302 303 304 302 305 309 306 303 302 302 303 304 305
58 60 63 58 52 59 49 23 20 9 354 356 347 322 311 304 301 296 294 284 272 278 300 307 310 304 302 301 309 299 299 300 300 301 302 301 302 302 302 303 304 304 305 305
56 58 58 55 46 39 37 18 5 337 328 324 306 296 295 301 299 291 291 294 297 300 307 312 315 302 303 308 310 302 299 299 298 298 300 301 302 303 304 305 306 306 305 305
53 57 54 50 44 29 17 12 8 344 326 320 316 313 311 310 309 299 278 271 294 310 316 301 299 304 314 316 309 303 301 300 300 300 299 299 301 303 304 305 305 304 303 303
53 53 50 44 38 20 8 8 2 353 338 326 318 314 307 301 296 297 303 301 303 310 316 297 305 312 318 322 309 303 302 302 301 302 301 301 301 302 303 302 302 302 302 303
57 48 42 35 35 27 8 354 348 340 325 313 305 297 296 303 303 286 282 306 314 313 309 307 314 318 322 322 307 303 302 301 300 300 300 300 300 300 299 299 300 301 301 301
57 53 46 31 16 358 346 345 342 335 331 324 318 313 300 284 285 298 300 301 311 317 313 313 316 321 325 314 309 304 301 297 298 300 298 300 299 300 300 300 300 301 301 301
42 24 8 348 333 332 334 335 331 328 328 324 320 318 314 309 301 301 304 306 308 317 319 313 314 317 317 312 308 307 304 304 307 307 303 301 300 300 300 301 301 300 300 299
35 21 12 1 352 344 335 328 320 319 319 313 312 314 315 316 314 315 314 313 313 313 312 313 314 313 311 310 308 307 306 306 305 303 303 301 300 299 300 299 300 300 299 298
Height
1487 1486 1487 1488 1489 1492 1494 1492 1493 1487 1487 1485 1486 1487 1488 1489 1490 1491 1492 1492 1493 1494 1494 1495 1495 1495 1495 1496 1496 1496 1496 1495 1494 1494 1493 1492 1491 1489 1488 1486 1485 1483 1481 1479
1490 1486 1487 1488 1485 1486 1488 1488 1487 1486 1487 1484 1485 1486 1486 1487 1488 1489 1490 1491 1492 1492 1492 1492 1493 1493 1493 1493 1493 1493 1492 1491 1491 1490 1489 1488 1487 1485 1484 1482 1480 1479 1477 1475
1490 1486 1487 1487 1481 1481 1482 1482 1484 1484 1483 1483 1485 1485 1486 1487 1487 1488 1489 1489 1490 1490 1490 1490 1490 1490 1490 1490 1490 1489 1489 1488 1487 1486 1485 1484 1483 1481 1479 1477 1476 1474 1472 1470
1491 1491 1493 1479 1476 1475 1478 1479 1479 1480 1481 1482 1484 1485 1485 1486 1486 1486 1487 1487 1488 1488 1488 1488 1488 1488 1488 1487 1487 1486 1485 1485 1484 1483 1481 1480 1479 1477 1475 1473 1471 1469 1467 1465
1491 1489 1482 1477 1476 1476 1478 1480 1477 1478 1479 1481 1482 1483 1485 1485 1485 1486 1486 1486 1486 1486 1486 1486 1485 1485 1485 1484 1484 1483 1482 1481 1480 1479 1478 1476 1474 1472 1471 1469 1466 1464 1463 1460
1488 1488 1483 1475 1475 1473 1477 1481 1477 1476 1478 1480 1481 1485 1486 1485 1484 1484 1484 1484 1484 1484 1484 1483 1483 1483 1482 1482 1481 1480 1479 1478 1477 1475 1474 1472 1470 1468 1466 1464 1462 1460 1457 1456
1487 1486 1479 1476 1474 1475 1481 1478 1477 1476 1477 1479 1480 1482 1483 1483 1483 1483 1483 1482 1482 1482 1481 1481 1481 1481 1480 1479 1478 1477 1476 1474 1473 1472 1470 1468 1466 1464 1462 1460 1457 1455 1452 1450
1485 1485 1481 1476 1476 1477 1476 1475 1475 1476 1477 1478 1479 1480 1480 1481 1481 1481 1481 1481 1480 1480 1479 1479 1479 1478 1477 1476 1475 1474 1472 1471 1469 1467 1466 1464 1461 1459 1457 1455 1452 1450 1447 1445
1479 1478 1475 1473 1473 1474 1474 1474 1474 1475 1476 1477 1477 1478 1479 1479 1480 1480 1480 1479 1479 1478 1477 1477 1477 1476 1475 1474 1472 1471 1469 1467 1465 1463 1461 1459 1457 1455 1453 1450 1448 1445 1443 1440
1475 1473 1472 1472 1472 1473 1473 1474 1474 1474 1475 1475 1476 1476 1477 1478 1478 1478 1478 1477 1477 1476 1475 1475 1474 1474 1473 1471 1469 1467 1465 1463 1461 1459 1457 1455 1453 1451 1448 1446 1443 1441 1438 1436
1474 1472 1472 1471 1471 1472 1472 1472 1473 1474 1474 1474 1474 1475 1475 1476 1476 1476 1476 1476 1475 1474 1473 1473 1472 1471 1470 1468 1466 1464 1462 1460 1458 1455 1453 1451 1448 1446 1444 1442 1440 1438 1435 1432
1470 1469 1470 1470 1470 1470 1470 1471 1472 1472 1472 1473 1473 1473 1474 1474 1474 1474 1474 1474 1473 1472 1471 1470 1469 1468 1467 1465 1463 1461 1459 1456 1454 1452 1449 1447 1444 1442 1439 1438 1436 1433 1431 1429
1467 1467 1467 1468 1469 1469 1469 1469 1470 1471 1471 1471 1472 1472 1472 1472 1472 1472 1472 1471 1471 1470 1469 1468 1467 1465 1464 1462 1460 1458 1456 1453 1451 1448 1446 1443 1440 1437 1434 1432 1431 1428 1426 1424
1465 1466 1466 1466 1467 1467 1467 1468 1469 1469 1469 1470 1470 1470 1470 1470 1470 1470 1470 1469 1469 1468 1467 1466 1464 1463 1461 1460 1457 1455 1453 1450 1448 1445 1443 1440 1437 1434 1431 1428 1425 1422 1421 1418
1464 1464 1465 1465 1465 1466 1466 1467 1467 1467 1468 1468 1468 1468 1468 1468 1468 1468 1468 1467 1466 1465 1464 1463 1461 1460 1458 1456 1454 1452 1450 1447 1445 1442 1439 1437 1434 1431 1428 1425 1422 1418 1415 1413
1463 1463 1463 1464 1464 1465 1465 1466 1466 1466 1467 1467 1467 1467 1467 1466 1466 1466 1466 1465 1464 1462 1461 1460 1458 1457 1455 1453 1451 1449 1446 1444 1441 1439 1436 1433 1430 1427 1424 1421 1418 1415 1412 1409
1461 1462 1462 1463 1463 1464 1464 1465 1465 1465 1465 1465 1465 1465 1465 1465 1464 1463 1463 1462 1461 1460 1459 1457 1456 1454 1452 1450 1448 1445 1443 1440 1438 1435 1432 1429 1427 1424 1421 1418 1415 1411 1408 1406
1461 1461 1462 1462 1462 1463 1463 1463 1463 1463 1463 1464 1464 1463 1463 1462 1462 1461 1460 1459 1458 1457 1456 1454 1453 1451 1449 1447 1444 1442 1439 1437 1434 1432 1429 1426 1423 1420 1417 1414 1411 1408 1405 1402
1460 1461 1461 1462 1462 1462 1462 1462 1462 1462 1462 1462 1462 1461 1461 1460 1460 1459 1458 1457 1455 1453 1452 1451 1450 1448 1445 1443 1441 1438 1436 1433 1431 1428 1425 1422 1419 1416 1414 1411 1408 1405 1402 1399
1460 1461 1461 1461 1461 1461 1461 1461 1461 1461 1460 1460 1460 1459 1459 1458 1457 1456 1455 1454 1452 1451 1449 1448 1446 1444 1442 1440 1438 1435 1432 1430 1427 1424 1421 1419 1416 1413 1410 1407 1404 1401 1398 1396
1460 1461 1460 1460 1460 1460 1460 1460 1459 1459 1458 1458 1458 1457 1456 1456 1455 1453 1452 1450 1449 1448 1446 1444 1442 1440 1438 1436 1434 1431 1429 1426 1424 1421 1418 1415 1412 1409 1407 1404 1401 1398 1395 1392
1460 1460 1460 1460 1460 1459 1459 1459 1458 1457 1456 1456 1455 1455 1454 1453 1452 1451 1449 1448 1446 1445 1443 1441 1439 1437 1435 1433 1430 1428 1425 1423 1420 1417 1415 1412 1409 1406 1403 1401 1398 1395 1392 1389
1461 1460 1460 1460 1459 1459 1458 1458 1457 1456 1455 1454 1454 1453 1452 1451 1449 1448 1446 1445 1443 1441 1440 1438 1436 1434 1432 1429 1427 1424 1422 1419 1416 1414 1411 1409 1406 1403 1400 1398 1395 1392 1389 1386
1460 1460 1460 1460 1459 1458 1458 1457 1456 1455 1455 1453 1453 1452 1450 1449 1447 1446 1444 1442 1440 1438 1436 1434 1432 1430 1428 1426 1423 1421 1418 1415 1413 1410 1408 1405 1403 1400 1397 1394 1391 1388 1385 1382
1460 1460 1459 1459 1458 1458 1457 1456 1455 1454 1453 1452 1451 1450 1449 1447 1445 1443 1442 1439 1437 1435 1433 1431 1429 1427 1425 1422 1420 1417 1415 1413 1410 1407 1405 1402 1400 1397 1394 1392 1389 1386 1383 1380
1460 1459 1459 1459 1458 1458 1457 1456 1454 1453 1452 1450 1449 1448 1446 1445 1443 1441 1439 1437 1435 1432 1430 1428 1425 1423 1421 1419 1417 1414 1412 1409 1407 1404 1402 1399 1396 1394 1391 1389 1386 1383 1380 1377
1459 1459 1459 1458 1457 1457 1456 1455 1453 1452 1450 1449 1447 1446 1444 1442 1440 1438 1436 1434 1432 1429 1427 1425 1422 1420 1418 1416 1413 1411 1409 1406 1404 1401 1399 1396 1393 1391 1388 1385 1383 1380 1377 1373